星链-1559 (STARLINK-1559 )

导读 | 星芒AI

STARLINK-1559 是 SpaceX Starlink 项目中的一颗低轨通信卫星,属于第 15 批部署的星链卫星群。该卫星于 2021 年 10 月 31 日由猎鹰 9 号火箭从美国卡纳维拉尔角发射升空,旨在为全球提供高速互联网服务。它运行在约 550 公里的近地轨道,设计寿命为 5 至 7 年。STARLINK-1559 采用先进的相控阵天线和激光通信技术,支持低延迟、高带宽的网络连接,是 SpaceX 构建全球卫星互联网网络的重要组成部分。

基本信息
目录编号:
46077
目录名称:
STARLINK-1559
国际标识:
2020-055BC
轨道中心:
EARTH
卫星名称:
星链-1559
卫星全名:
星链-1559 (STARLINK-1559 )
卫星状态:
在轨 (已飞行1957 天)
发射日期:
2020-08-07 UTC
国别 :
美国 (US)
星等 :
--
轨道信息
数据来源 国际轨道数据
星历时间: 2025-12-15T09:05:29+0800
1天前
查看轨道信息
半长轴: 6878.276km
偏心率: 0.0005493
轨道倾角: 53.041°
近地点辐角 145.427°
升交点赤经 105.478°
平近点角 214.708°
近地点: 496.362km
远地点: 503.92km
周期: 94.619分钟
每日圈数: 15.218904
详细信息
固有亮度:
5
最大亮度:
2.5
卫星平台:
Starlink V1.0
覆盖范围:
全球
运营商:
太空探索技术公司
运营商所在国:
美国
制造商(研发单位):
太空探索技术公司
制造商所在国:
美国
使用方式:
暂无
卫星简介
星链(Starlink)计划是由太空探索技术公司(SpaceX)提出的一个巨型低轨卫星互联网星座项目,计划在2019年至2024年间在太空搭建由约1.2万颗卫星组成的“星链”网络,其中1584颗将部署在地球上空550千米处的近地轨道,并从2020年开始工作。该卫星仍在工作。
2D轨道图
3D轨道图
轨道高度分析图
轨道倾角分析图
轨道综合分析图
查看轨道综合分析图